• In Hungary
  • List of Countries
  • For 7 days
  • Water Temperature
  • Satellite Maps
  • Weather Map
  • News
  • Weather Widgets
  • user-avatar
    Login

    Hourly Weather Jicin

    Today, 19 September, Wednesday

    Time Temperature Precipitation Wind Pressure Humidity
    00:00 +18°C° 0 mm 2 mps 738 mmHg 72%
    01:00 +17°C° 0 mm 2 mps 738 mmHg 73%
    02:00 +17°C° 0 mm 2 mps 738 mmHg 74%
    03:00 +17°C° 0 mm 2 mps 738 mmHg 75%
    04:00 +16°C° 0 mm 2 mps 739 mmHg 76%
    05:00 +17°C° 0 mm 2 mps 739 mmHg 75%
    06:00 +17°C° 0 mm 2 mps 739 mmHg 74%
    07:00 +18°C° 0 mm 2 mps 739 mmHg 72%
    08:00 +19°C° 0 mm 2 mps 740 mmHg 67%
    09:00 +21°C° 0 mm 2 mps 740 mmHg 62%
    10:00 +24°C° 0 mm 2 mps 740 mmHg 57%
    11:00 +25°C° 0 mm 2 mps 740 mmHg 54%
    12:00 +27°C° 0 mm 2 mps 740 mmHg 51%
    13:00 +28°C° 0 mm 2 mps 740 mmHg 47%
    14:00 +28°C° 0 mm 1 mps 740 mmHg 47%
    15:00 +28°C° 0 mm 1 mps 740 mmHg 46%
    16:00 +28°C° 0 mm 1 mps 740 mmHg 46%
    17:00 +26°C° 0 mm 1 mps 740 mmHg 52%
    18:00 +24°C° 0 mm 1 mps 740 mmHg 59%
    19:00 +22°C° 0 mm 1 mps 740 mmHg 66%
    20:00 +21°C° 0.1 mm 1 mps 740 mmHg 69%
    21:00 +20°C° 0.1 mm 2 mps 740 mmHg 72%
    22:00 +19°C° 0.1 mm 2 mps 740 mmHg 75%
    23:00 +19°C° 0.1 mm 2 mps 740 mmHg 78%

    Tomorrow, 20 September, Thursday

    Time Temperature Precipitation Wind Pressure Humidity
    00:00 +18°C° 0.1 mm 2 mps 740 mmHg 80%
    01:00 +18°C° 0.1 mm 2 mps 740 mmHg 83%
    02:00 +19°C° 0.1 mm 1 mps 740 mmHg 84%
    03:00 +18°C° 0.1 mm 1 mps 740 mmHg 85%
    04:00 +18°C° 0.1 mm 1 mps 740 mmHg 87%
    05:00 +19°C° 0 mm 1 mps 740 mmHg 85%
    06:00 +19°C° 0 mm 1 mps 740 mmHg 83%
    07:00 +20°C° 0 mm 1 mps 740 mmHg 81%
    08:00 +22°C° 0 mm 1 mps 740 mmHg 74%
    09:00 +24°C° 0 mm 1 mps 740 mmHg 67%
    10:00 +26°C° 0 mm 1 mps 741 mmHg 59%
    11:00 +27°C° 0 mm 2 mps 740 mmHg 55%
    12:00 +28°C° 0 mm 2 mps 740 mmHg 51%
    13:00 +29°C° 0 mm 2 mps 740 mmHg 47%
    14:00 +29°C° 0 mm 2 mps 740 mmHg 47%
    15:00 +29°C° 0 mm 2 mps 739 mmHg 47%
    16:00 +29°C° 0 mm 2 mps 739 mmHg 46%
    17:00 +27°C° 0 mm 1 mps 739 mmHg 52%
    18:00 +25°C° 0 mm 1 mps 739 mmHg 59%
    19:00 +23°C° 0 mm 1 mps 739 mmHg 65%
    20:00 +22°C° 0 mm 1 mps 739 mmHg 67%
    21:00 +20°C° 0 mm 2 mps 738 mmHg 69%
    22:00 +20°C° 0 mm 2 mps 738 mmHg 71%
    23:00 +19°C° 0 mm 2 mps 738 mmHg 74%

    Day after tomorrow, 21 September, Friday

    Time Temperature Precipitation Wind Pressure Humidity
    00:00 +19°C° 0 mm 2 mps 738 mmHg 76%
    01:00 +18°C° 0 mm 2 mps 737 mmHg 78%
    02:00 +18°C° 0 mm 2 mps 737 mmHg 79%
    03:00 +17°C° 0 mm 2 mps 737 mmHg 79%
    04:00 +17°C° 0 mm 2 mps 736 mmHg 80%
    05:00 +17°C° 0 mm 2 mps 736 mmHg 77%
    06:00 +18°C° 0 mm 3 mps 736 mmHg 74%
    07:00 +18°C° 0 mm 3 mps 736 mmHg 72%
    08:00 +20°C° 0 mm 3 mps 735 mmHg 64%
    09:00 +22°C° 0 mm 4 mps 735 mmHg 56%
    10:00 +25°C° 0 mm 5 mps 735 mmHg 49%
    11:00 +27°C° 0 mm 5 mps 735 mmHg 46%
    12:00 +28°C° 0 mm 5 mps 734 mmHg 44%
    13:00 +29°C° 0 mm 6 mps 734 mmHg 42%
    14:00 +29°C° 0 mm 5 mps 733 mmHg 43%
    15:00 +29°C° 0 mm 5 mps 732 mmHg 44%
    16:00 +28°C° 0 mm 5 mps 732 mmHg 45%
    17:00 +27°C° 0 mm 5 mps 731 mmHg 49%
    18:00 +25°C° 0 mm 4 mps 731 mmHg 53%
    19:00 +23°C° 0 mm 4 mps 730 mmHg 57%
    20:00 +22°C° 0.1 mm 5 mps 731 mmHg 60%
    21:00 +21°C° 0.1 mm 5 mps 731 mmHg 64%
    22:00 +20°C° 0.1 mm 6 mps 732 mmHg 67%
    23:00 +16°C° 2.1 mm 6 mps 733 mmHg 73%

    22 September, Saturday

    Time Temperature Precipitation Wind Pressure Humidity
    00:00 +14°C° 2.1 mm 6 mps 734 mmHg 79%
    01:00 +10°C° 2.1 mm 6 mps 736 mmHg 84%
    02:00 +10°C° 0.3 mm 6 mps 737 mmHg 82%
    03:00 +10°C° 0.3 mm 5 mps 738 mmHg 79%
    04:00 +9°C° 0.3 mm 5 mps 739 mmHg 77%
    05:00 +9°C° 0 mm 5 mps 739 mmHg 76%
    06:00 +9°C° 0 mm 5 mps 739 mmHg 75%
    07:00 +9°C° 0 mm 5 mps 740 mmHg 74%
    08:00 +10°C° 0 mm 5 mps 740 mmHg 69%
    09:00 +11°C° 0 mm 6 mps 740 mmHg 65%
    10:00 +13°C° 0 mm 6 mps 740 mmHg 60%
    11:00 +13°C° 0 mm 6 mps 740 mmHg 56%
    12:00 +14°C° 0 mm 6 mps 740 mmHg 52%
    13:00 +15°C° 0 mm 6 mps 740 mmHg 48%
    14:00 +15°C° 0 mm 5 mps 740 mmHg 46%
    15:00 +15°C° 0 mm 5 mps 740 mmHg 44%
    16:00 +16°C° 0 mm 5 mps 740 mmHg 42%
    17:00 +14°C° 0 mm 4 mps 740 mmHg 48%
    18:00 +13°C° 0 mm 3 mps 740 mmHg 53%
    19:00 +12°C° 0 mm 2 mps 740 mmHg 58%
    20:00 +12°C° 0 mm 2 mps 741 mmHg 60%
    21:00 +10°C° 0 mm 2 mps 741 mmHg 63%
    22:00 +10°C° 0 mm 2 mps 741 mmHg 65%
    23:00 +9°C° 0 mm 2 mps 741 mmHg 67%

    23 September, Sunday

    Time Temperature Precipitation Wind Pressure Humidity
    00:00 +9°C° 0 mm 2 mps 741 mmHg 69%
    01:00 +8°C° 0 mm 2 mps 741 mmHg 71%
    02:00 +9°C° 0 mm 1 mps 741 mmHg 72%
    03:00 +8°C° 0 mm 1 mps 740 mmHg 73%
    04:00 +8°C° 0 mm 1 mps 740 mmHg 75%
    05:00 +7°C° 0 mm 2 mps 740 mmHg 73%
    06:00 +8°C° 0 mm 2 mps 740 mmHg 72%
    07:00 +8°C° 0 mm 2 mps 739 mmHg 70%
    08:00 +10°C° 0 mm 3 mps 739 mmHg 65%
    09:00 +12°C° 0 mm 3 mps 739 mmHg 59%
    10:00 +13°C° 0 mm 4 mps 738 mmHg 54%
    11:00 +14°C° 0 mm 4 mps 737 mmHg 51%
    12:00 +14°C° 0 mm 4 mps 736 mmHg 49%
    13:00 +15°C° 0 mm 5 mps 735 mmHg 47%
    14:00 +14°C° 0.7 mm 5 mps 734 mmHg 56%
    15:00 +13°C° 0.7 mm 5 mps 733 mmHg 64%
    16:00 +12°C° 0.7 mm 5 mps 732 mmHg 72%
    17:00 +12°C° 0.3 mm 5 mps 731 mmHg 73%
    18:00 +12°C° 0.3 mm 5 mps 730 mmHg 73%
    19:00 +11°C° 0.3 mm 6 mps 728 mmHg 73%
    20:00 +11°C° 0.2 mm 6 mps 727 mmHg 74%
    21:00 +11°C° 0.2 mm 7 mps 725 mmHg 75%
    22:00 +11°C° 0.2 mm 7 mps 724 mmHg 75%
    23:00 +11°C° 3.7 mm 6 mps 724 mmHg 79%

    24 September, Monday

    Time Temperature Precipitation Wind Pressure Humidity
    00:00 +11°C° 3.7 mm 6 mps 725 mmHg 84%
    01:00 +12°C° 3.7 mm 5 mps 725 mmHg 88%
    02:00 +10°C° 0.2 mm 6 mps 725 mmHg 84%
    03:00 +10°C° 0.2 mm 7 mps 724 mmHg 81%
    04:00 +9°C° 0.2 mm 7 mps 723 mmHg 77%
    05:00 +9°C° 0.1 mm 8 mps 723 mmHg 77%
    06:00 +9°C° 0.1 mm 8 mps 722 mmHg 77%
    07:00 +8°C° 0.1 mm 9 mps 722 mmHg 76%
    08:00 +10°C° 0.1 mm 9 mps 722 mmHg 75%
    09:00 +11°C° 0.1 mm 9 mps 722 mmHg 74%
    10:00 +11°C° 0.1 mm 9 mps 723 mmHg 73%
    11:00 +11°C° 0.4 mm 9 mps 723 mmHg 74%
    12:00 +11°C° 0.4 mm 9 mps 724 mmHg 75%
    13:00 +9°C° 0.4 mm 10 mps 725 mmHg 76%
    14:00 +10°C° 0.2 mm 9 mps 726 mmHg 76%
    15:00 +10°C° 0.2 mm 9 mps 726 mmHg 77%
    16:00 +8°C° 0.2 mm 9 mps 727 mmHg 77%
    17:00 +8°C° 0.2 mm 9 mps 727 mmHg 78%
    18:00 +8°C° 0.2 mm 9 mps 728 mmHg 78%
    19:00 +7°C° 0.2 mm 9 mps 728 mmHg 79%
    20:00 +7°C° 0.4 mm 9 mps 729 mmHg 81%
    21:00 +7°C° 0.4 mm 9 mps 729 mmHg 82%
    22:00 +7°C° 0.4 mm 9 mps 730 mmHg 84%
    23:00 +7°C° 0.5 mm 9 mps 730 mmHg 84%
    Show more